Погода во Вршаце

Сербия     45°07′03″N   21°17′36″E
темп.,
°C
ветер,
м/с
пор.,
м/с
влажн.,
%
обл.,
%
осадки,
мм/ч
давл.,
гПа
погр.,
м
17 июня, чт
чт1723:00+18ююв00775 0.0 101611
02:00+17ю11845 0.0 101611
05:00+15ююв228918 0.0 101614
08:00+20ююз22726 0.0 1017267
11:00+25зсз23550 0.0 10171173
14:00+28ссз234393 0.2 10162416
17:00+26сз2254100 0.0 1015208
20:00+23сз126188 0.0 101616
18 июня, пт
пт1823:00+21ссв117034 0.0 101611
02:00+18ююв2282100 0.0 101723
05:00+17ю2288100 0.0 101731
08:00+21ю2273100 0.0 1017272
11:00+24ссз1262100 0.0 1017701
14:00+26св3352100 0.0 10161228
17:00+27ссв345097 0.0 10151292
20:00+23юз1163100 0.1 101511
19 июня, сб
сб1923:00+20зюз1178100 0.4 101615
02:00+18юз1188100 1.2 101511
05:00+17ююз118910 0.1 101515
08:00+21ююз11765 0.1 1015347
11:00+26ссз34601 0.6 10141046
14:00+29с6647100 1.9 10122221
17:00+29ссв464766 0.0 10121253
20:00+23ссв226766 0.0 101211
20 июня, вс
вс2023:00+20ссв23710 0.0 101327
02:00+18с11846 0.0 101313
05:00+16ююв22870 0.0 101418
08:00+22ююв45730 0.0 1015507
11:00+26ю33577 0.0 10151250
14:00+29ююз124620 0.0 10131931
17:00+29юв224512 0.0 10121643
20:00+24ююв336318 0.0 101231
21 июня, пн
пн2123:00+21ююв23705 0.0 101224
02:00+19юв33800 0.0 101236
05:00+18юв22835 0.0 101231
08:00+23ююв23632 0.0 1012298
11:00+29ююв334596 0.0 1011950
14:00+31юз2237100 0.0 10101423
17:00+31в113641 0.0 10091190
20:00+26вюв11545 0.0 100911